1590616829,2020-05-28 00:00,426.00,-30
1590616889,2020-05-28 00:01,424.00,-34
1590616949,2020-05-28 00:02,422.00,-33
1590617009,2020-05-28 00:03,426.00,-36
1590617069,2020-05-28 00:04,426.00,-34
1590617129,2020-05-28 00:05,430.00,-29
1590617189,2020-05-28 00:06,428.00,-29
1590617249,2020-05-28 00:07,426.00,-31
1590617309,2020-05-28 00:08,429.00,-29
1590617369,2020-05-28 00:09,428.00,-34
1590617429,2020-05-28 00:10,435.00,-33
1590617489,2020-05-28 00:11,440.00,-28
1590617549,2020-05-28 00:12,443.00,-30
1590617609,2020-05-28 00:13,447.00,-28
1590617669,2020-05-28 00:14,443.00,-31
1590617729,2020-05-28 00:15,442.00,-32
1590617789,2020-05-28 00:16,445.00,-31
1590617849,2020-05-28 00:17,440.00,-30
1590617910,2020-05-28 00:18,433.00,-34
1590617970,2020-05-28 00:19,427.00,-30
1590618030,2020-05-28 00:20,430.00,-29
1590618090,2020-05-28 00:21,432.00,-29
1590618150,2020-05-28 00:22,441.00,-33
1590618210,2020-05-28 00:23,443.00,-33
1590618270,2020-05-28 00:24,440.00,-32
1590618330,2020-05-28 00:25,435.00,-29
1590618390,2020-05-28 00:26,429.00,-35
1590618450,2020-05-28 00:27,428.00,-30
1590618510,2020-05-28 00:28,429.00,-33
1590618570,2020-05-28 00:29,435.00,-31
1590618630,2020-05-28 00:30,440.00,-34
1590618690,2020-05-28 00:31,435.00,-32
1590618750,2020-05-28 00:32,435.00,-30
1590618810,2020-05-28 00:33,433.00,-29
1590618870,2020-05-28 00:34,432.00,-29
1590618930,2020-05-28 00:35,432.00,-29
1590618991,2020-05-28 00:36,433.00,-33
1590619051,2020-05-28 00:37,435.00,-29
1590619111,2020-05-28 00:38,440.00,-32
1590619171,2020-05-28 00:39,440.00,-31
1590619231,2020-05-28 00:40,439.00,-31
1590619291,2020-05-28 00:41,442.00,-29
1590619351,2020-05-28 00:42,440.00,-30
1590619411,2020-05-28 00:43,444.00,-30
1590619471,2020-05-28 00:44,443.00,-30
1590619531,2020-05-28 00:45,437.00,-30
1590619591,2020-05-28 00:46,440.00,-35
1590619651,2020-05-28 00:47,435.00,-31
1590619711,2020-05-28 00:48,430.00,-28
1590619771,2020-05-28 00:49,424.00,-29
1590619831,2020-05-28 00:50,422.00,-32
1590619891,2020-05-28 00:51,422.00,-31
1590619951,2020-05-28 00:52,422.00,-29
1590620011,2020-05-28 00:53,424.00,-30
1590620072,2020-05-28 00:54,426.00,-33
1590620132,2020-05-28 00:55,431.00,-31
1590620192,2020-05-28 00:56,431.00,-31
1590620252,2020-05-28 00:57,429.00,-32
1590620312,2020-05-28 00:58,430.00,-31
1590620372,2020-05-28 00:59,430.00,-33
1590620432,2020-05-28 01:00,426.00,-28
1590620492,2020-05-28 01:01,430.00,-28
1590620552,2020-05-28 01:02,427.00,-31
1590620612,2020-05-28 01:03,428.00,-29
1590620672,2020-05-28 01:04,432.00,-28
1590620732,2020-05-28 01:05,433.00,-30
1590620792,2020-05-28 01:06,435.00,-29
1590620852,2020-05-28 01:07,437.00,-31
1590620912,2020-05-28 01:08,434.00,-32
1590620972,2020-05-28 01:09,433.00,-27
1590621032,2020-05-28 01:10,431.00,-32
1590621092,2020-05-28 01:11,427.00,-29
1590621152,2020-05-28 01:12,426.00,-31
1590621213,2020-05-28 01:13,429.00,-28
1590621273,2020-05-28 01:14,430.00,-39
1590621333,2020-05-28 01:15,432.00,-34
1590621393,2020-05-28 01:16,441.00,-36
1590621453,2020-05-28 01:17,442.00,-36
1590621513,2020-05-28 01:18,439.00,-30
1590621573,2020-05-28 01:19,442.00,-32
1590621633,2020-05-28 01:20,445.00,-30
1590621693,2020-05-28 01:21,451.00,-32
1590621753,2020-05-28 01:22,450.00,-28
1590621813,2020-05-28 01:23,449.00,-30
1590621873,2020-05-28 01:24,449.00,-30
1590621934,2020-05-28 01:25,444.00,-30
1590621994,2020-05-28 01:26,438.00,-28
1590622054,2020-05-28 01:27,435.00,-33
1590622114,2020-05-28 01:28,431.00,-32
1590622174,2020-05-28 01:29,432.00,-29
1590622234,2020-05-28 01:30,433.00,-31
1590622294,2020-05-28 01:31,440.00,-34
1590622354,2020-05-28 01:32,439.00,-34
1590622414,2020-05-28 01:33,443.00,-30
1590622474,2020-05-28 01:34,444.00,-31
1590622534,2020-05-28 01:35,447.00,-30
1590622594,2020-05-28 01:36,445.00,-28
1590622654,2020-05-28 01:37,444.00,-30
1590622714,2020-05-28 01:38,448.00,-35
1590622774,2020-05-28 01:39,448.00,-34
1590622834,2020-05-28 01:40,452.00,-34
1590622895,2020-05-28 01:41,454.00,-29
1590622955,2020-05-28 01:42,453.00,-33
1590623015,2020-05-28 01:43,453.00,-33
1590623075,2020-05-28 01:44,458.00,-32
1590623135,2020-05-28 01:45,458.00,-29
1590623195,2020-05-28 01:46,457.00,-30
1590623255,2020-05-28 01:47,453.00,-33
1590623315,2020-05-28 01:48,453.00,-35
1590623375,2020-05-28 01:49,451.00,-31
1590623435,2020-05-28 01:50,453.00,-33
1590623495,2020-05-28 01:51,446.00,-28
1590623555,2020-05-28 01:52,442.00,-31
1590623615,2020-05-28 01:53,442.00,-34
1590623676,2020-05-28 01:54,443.00,-31
1590623736,2020-05-28 01:55,453.00,-30
1590623796,2020-05-28 01:56,454.00,-28
1590623856,2020-05-28 01:57,446.00,-30
1590623916,2020-05-28 01:58,436.00,-30
1590623976,2020-05-28 01:59,434.00,-31
1590624036,2020-05-28 02:00,435.00,-35
1590624096,2020-05-28 02:01,441.00,-31
1590624156,2020-05-28 02:02,444.00,-34
1590624216,2020-05-28 02:03,443.00,-30
1590624276,2020-05-28 02:04,448.00,-31
1590624336,2020-05-28 02:05,449.00,-31
1590624396,2020-05-28 02:06,447.00,-30
1590624456,2020-05-28 02:07,451.00,-35
1590624516,2020-05-28 02:08,454.00,-30
1590624577,2020-05-28 02:09,453.00,-30
1590624637,2020-05-28 02:10,452.00,-29
1590624697,2020-05-28 02:11,454.00,-30
1590624757,2020-05-28 02:12,452.00,-30
1590624817,2020-05-28 02:13,456.00,-32
1590624877,2020-05-28 02:14,458.00,-30
1590624937,2020-05-28 02:15,463.00,-30
1590624997,2020-05-28 02:16,461.00,-28
1590625057,2020-05-28 02:17,453.00,-30
1590625117,2020-05-28 02:18,441.00,-28
1590625177,2020-05-28 02:19,438.00,-32
1590625237,2020-05-28 02:20,441.00,-29
1590625297,2020-05-28 02:21,434.00,-34
1590625358,2020-05-28 02:22,434.00,-31
1590625418,2020-05-28 02:23,430.00,-30
1590625478,2020-05-28 02:24,432.00,-29
1590625538,2020-05-28 02:25,432.00,-31
1590625598,2020-05-28 02:26,434.00,-32
1590625658,2020-05-28 02:27,437.00,-31
1590625718,2020-05-28 02:28,443.00,-34
1590625778,2020-05-28 02:29,446.00,-30
1590625838,2020-05-28 02:30,448.00,-31
1590625898,2020-05-28 02:31,453.00,-29
1590625958,2020-05-28 02:32,453.00,-30
1590626018,2020-05-28 02:33,456.00,-31
1590626078,2020-05-28 02:34,457.00,-31
1590626138,2020-05-28 02:35,454.00,-29
1590626198,2020-05-28 02:36,454.00,-31
1590626258,2020-05-28 02:37,450.00,-28
1590626318,2020-05-28 02:38,447.00,-28
1590626378,2020-05-28 02:39,442.00,-30
1590626438,2020-05-28 02:40,433.00,-30
1590626498,2020-05-28 02:41,430.00,-28
1590626558,2020-05-28 02:42,432.00,-31
1590626618,2020-05-28 02:43,434.00,-27
1590626679,2020-05-28 02:44,441.00,-30
1590626739,2020-05-28 02:45,446.00,-31
1590626799,2020-05-28 02:46,448.00,-30
1590626859,2020-05-28 02:47,441.00,-29
1590626919,2020-05-28 02:48,431.00,-28
1590626979,2020-05-28 02:49,419.00,-31
1590627039,2020-05-28 02:50,417.00,-29
1590627099,2020-05-28 02:51,418.00,-32
1590627159,2020-05-28 02:52,415.00,-30
1590627219,2020-05-28 02:53,416.00,-29
1590627279,2020-05-28 02:54,415.00,-28
1590627339,2020-05-28 02:55,416.00,-31
1590627399,2020-05-28 02:56,417.00,-31
1590627459,2020-05-28 02:57,420.00,-32
1590627519,2020-05-28 02:58,423.00,-29
1590627579,2020-05-28 02:59,422.00,-30
1590627639,2020-05-28 03:00,424.00,-34
1590627699,2020-05-28 03:01,424.00,-28
1590627759,2020-05-28 03:02,426.00,-29
1590627819,2020-05-28 03:03,422.00,-33
1590627880,2020-05-28 03:04,417.00,-34
1590627940,2020-05-28 03:05,421.00,-30
1590628000,2020-05-28 03:06,419.00,-28
1590628060,2020-05-28 03:07,422.00,-31
1590628120,2020-05-28 03:08,423.00,-34
1590628180,2020-05-28 03:09,422.00,-31
1590628240,2020-05-28 03:10,424.00,-30
1590628300,2020-05-28 03:11,423.00,-32
1590628360,2020-05-28 03:12,428.00,-33
1590628420,2020-05-28 03:13,425.00,-30
1590628480,2020-05-28 03:14,424.00,-28
1590628540,2020-05-28 03:15,424.00,-30
1590628600,2020-05-28 03:16,422.00,-30
1590628660,2020-05-28 03:17,421.00,-32
1590628720,2020-05-28 03:18,424.00,-29
1590628780,2020-05-28 03:19,423.00,-33
1590628840,2020-05-28 03:20,420.00,-31
1590628901,2020-05-28 03:21,422.00,-29
1590628961,2020-05-28 03:22,424.00,-29
1590629021,2020-05-28 03:23,425.00,-30
1590629081,2020-05-28 03:24,428.00,-30
1590629141,2020-05-28 03:25,427.00,-29
1590629201,2020-05-28 03:26,426.00,-30
1590629261,2020-05-28 03:27,428.00,-30
1590629321,2020-05-28 03:28,430.00,-32
1590629381,2020-05-28 03:29,433.00,-30
1590629441,2020-05-28 03:30,439.00,-32
1590629501,2020-05-28 03:31,439.00,-31
1590629561,2020-05-28 03:32,438.00,-35
1590629621,2020-05-28 03:33,438.00,-29
1590629681,2020-05-28 03:34,444.00,-31
1590629741,2020-05-28 03:35,441.00,-29
1590629801,2020-05-28 03:36,436.00,-28
1590629862,2020-05-28 03:37,432.00,-35
1590629922,2020-05-28 03:38,431.00,-30
1590629982,2020-05-28 03:39,431.00,-29
1590630042,2020-05-28 03:40,431.00,-30
1590630102,2020-05-28 03:41,431.00,-32
1590630162,2020-05-28 03:42,433.00,-29
1590630222,2020-05-28 03:43,434.00,-33
1590630282,2020-05-28 03:44,432.00,-34
1590630342,2020-05-28 03:45,430.00,-34
1590630402,2020-05-28 03:46,423.00,-30
1590630462,2020-05-28 03:47,425.00,-32
1590630522,2020-05-28 03:48,427.00,-33
1590630582,2020-05-28 03:49,430.00,-30
1590630642,2020-05-28 03:50,429.00,-30
1590630702,2020-05-28 03:51,426.00,-30
1590630762,2020-05-28 03:52,434.00,-31
1590630822,2020-05-28 03:53,435.00,-33
1590630882,2020-05-28 03:54,437.00,-30
1590630942,2020-05-28 03:55,434.00,-29
1590631002,2020-05-28 03:56,434.00,-30
1590631062,2020-05-28 03:57,432.00,-32
1590631122,2020-05-28 03:58,435.00,-30
1590631182,2020-05-28 03:59,443.00,-30
1590631243,2020-05-28 04:00,446.00,-32
1590631303,2020-05-28 04:01,444.00,-31
1590631363,2020-05-28 04:02,437.00,-30
1590631423,2020-05-28 04:03,434.00,-33
1590631483,2020-05-28 04:04,435.00,-32
1590631543,2020-05-28 04:05,434.00,-31
1590631603,2020-05-28 04:06,433.00,-31
1590631663,2020-05-28 04:07,433.00,-30
1590631723,2020-05-28 04:08,431.00,-32
1590631783,2020-05-28 04:09,434.00,-33
1590631843,2020-05-28 04:10,434.00,-32
1590631903,2020-05-28 04:11,444.00,-30
1590631963,2020-05-28 04:12,448.00,-32
1590632023,2020-05-28 04:13,442.00,-32
1590632083,2020-05-28 04:14,433.00,-31
1590632143,2020-05-28 04:15,433.00,-31
1590632203,2020-05-28 04:16,435.00,-32
1590632263,2020-05-28 04:17,435.00,-32
1590632323,2020-05-28 04:18,434.00,-30
1590632383,2020-05-28 04:19,435.00,-29
1590632443,2020-05-28 04:20,437.00,-30
1590632504,2020-05-28 04:21,436.00,-30
1590632564,2020-05-28 04:22,435.00,-31
1590632624,2020-05-28 04:23,436.00,-32
1590632684,2020-05-28 04:24,439.00,-32
1590632744,2020-05-28 04:25,443.00,-30
1590632804,2020-05-28 04:26,447.00,-30
1590632864,2020-05-28 04:27,445.00,-31
1590632924,2020-05-28 04:28,443.00,-29
1590632984,2020-05-28 04:29,444.00,-35
1590633044,2020-05-28 04:30,448.00,-31
1590633104,2020-05-28 04:31,453.00,-30
1590633164,2020-05-28 04:32,448.00,-32
1590633224,2020-05-28 04:33,443.00,-30
1590633284,2020-05-28 04:34,440.00,-34
1590633344,2020-05-28 04:35,439.00,-32
1590633404,2020-05-28 04:36,438.00,-30
1590633464,2020-05-28 04:37,443.00,-30
1590633525,2020-05-28 04:38,445.00,-31
1590633585,2020-05-28 04:39,446.00,-30
1590633645,2020-05-28 04:40,450.00,-36
1590633705,2020-05-28 04:41,450.00,-28
1590633765,2020-05-28 04:42,452.00,-34
1590633825,2020-05-28 04:43,451.00,-30
1590633885,2020-05-28 04:44,454.00,-30
1590633945,2020-05-28 04:45,449.00,-33
1590634005,2020-05-28 04:46,448.00,-29
1590634065,2020-05-28 04:47,445.00,-32
1590634126,2020-05-28 04:48,450.00,-30
1590634186,2020-05-28 04:49,450.00,-29
1590634246,2020-05-28 04:50,450.00,-33
1590634306,2020-05-28 04:51,454.00,-30
1590634366,2020-05-28 04:52,453.00,-30
1590634426,2020-05-28 04:53,454.00,-30
1590634486,2020-05-28 04:54,457.00,-31
1590634546,2020-05-28 04:55,458.00,-31
1590634606,2020-05-28 04:56,457.00,-27
1590634666,2020-05-28 04:57,458.00,-29
1590634726,2020-05-28 04:58,458.00,-28
1590634786,2020-05-28 04:59,454.00,-30
1590634846,2020-05-28 05:00,457.00,-30
1590634906,2020-05-28 05:01,451.00,-29
1590634966,2020-05-28 05:02,445.00,-28
1590635026,2020-05-28 05:03,444.00,-30
1590635086,2020-05-28 05:04,442.00,-28
1590635146,2020-05-28 05:05,443.00,-35
1590635207,2020-05-28 05:06,447.00,-30
1590635267,2020-05-28 05:07,447.00,-30
1590635327,2020-05-28 05:08,448.00,-31
1590635387,2020-05-28 05:09,450.00,-32
1590635447,2020-05-28 05:10,452.00,-31
1590635507,2020-05-28 05:11,451.00,-30
1590635567,2020-05-28 05:12,448.00,-31
1590635627,2020-05-28 05:13,449.00,-33
1590635687,2020-05-28 05:14,449.00,-28
1590635747,2020-05-28 05:15,452.00,-30
1590635807,2020-05-28 05:16,455.00,-32
1590635867,2020-05-28 05:17,454.00,-30
1590635927,2020-05-28 05:18,452.00,-28
1590635987,2020-05-28 05:19,447.00,-30
1590636047,2020-05-28 05:20,450.00,-31
1590636107,2020-05-28 05:21,447.00,-32
1590636167,2020-05-28 05:22,444.00,-32
1590636227,2020-05-28 05:23,447.00,-29
1590636287,2020-05-28 05:24,453.00,-30
1590636347,2020-05-28 05:25,460.00,-33
1590636407,2020-05-28 05:26,459.00,-33
1590636467,2020-05-28 05:27,461.00,-34
1590636527,2020-05-28 05:28,459.00,-32
1590636588,2020-05-28 05:29,455.00,-31
1590636648,2020-05-28 05:30,454.00,-30
1590636708,2020-05-28 05:31,455.00,-30
1590636768,2020-05-28 05:32,447.00,-31
1590636828,2020-05-28 05:33,447.00,-33
1590636888,2020-05-28 05:34,445.00,-31
1590636948,2020-05-28 05:35,443.00,-32
1590637008,2020-05-28 05:36,441.00,-27
1590637068,2020-05-28 05:37,445.00,-32
1590637128,2020-05-28 05:38,445.00,-29
1590637188,2020-05-28 05:39,447.00,-30
1590637248,2020-05-28 05:40,446.00,-30
1590637308,2020-05-28 05:41,445.00,-29
1590637368,2020-05-28 05:42,448.00,-30
1590637428,2020-05-28 05:43,447.00,-29
1590637488,2020-05-28 05:44,447.00,-32
1590637548,2020-05-28 05:45,447.00,-29
1590637608,2020-05-28 05:46,449.00,-33
1590637668,2020-05-28 05:47,452.00,-33
1590637728,2020-05-28 05:48,453.00,-29
1590637788,2020-05-28 05:49,452.00,-32
1590637848,2020-05-28 05:50,450.00,-29
1590637908,2020-05-28 05:51,449.00,-28
1590637969,2020-05-28 05:52,451.00,-28
1590638029,2020-05-28 05:53,446.00,-30
1590638089,2020-05-28 05:54,436.00,-28
1590638149,2020-05-28 05:55,441.00,-30
1590638209,2020-05-28 05:56,439.00,-28
1590638269,2020-05-28 05:57,436.00,-31
1590638329,2020-05-28 05:58,437.00,-33
1590638389,2020-05-28 05:59,438.00,-30
1590638449,2020-05-28 06:00,438.00,-31
1590638509,2020-05-28 06:01,441.00,-31
1590638569,2020-05-28 06:02,438.00,-33
1590638629,2020-05-28 06:03,438.00,-33
1590638689,2020-05-28 06:04,440.00,-32
1590638749,2020-05-28 06:05,437.00,-33
1590638809,2020-05-28 06:06,438.00,-28
1590638869,2020-05-28 06:07,437.00,-30
1590638929,2020-05-28 06:08,433.00,-30
1590638989,2020-05-28 06:09,433.00,-32
1590639049,2020-05-28 06:10,432.00,-30
1590639110,2020-05-28 06:11,430.00,-29
1590639170,2020-05-28 06:12,431.00,-33
1590639230,2020-05-28 06:13,430.00,-29
1590639290,2020-05-28 06:14,430.00,-31
1590639350,2020-05-28 06:15,427.00,-30
1590639410,2020-05-28 06:16,429.00,-31
1590639470,2020-05-28 06:17,427.00,-30
1590639530,2020-05-28 06:18,427.00,-37
1590639590,2020-05-28 06:19,425.00,-28
1590639650,2020-05-28 06:20,423.00,-31
1590639710,2020-05-28 06:21,426.00,-32
1590639770,2020-05-28 06:22,426.00,-31
1590639830,2020-05-28 06:23,427.00,-34
1590639890,2020-05-28 06:24,423.00,-30
1590639950,2020-05-28 06:25,423.00,-35
1590640010,2020-05-28 06:26,420.00,-31
1590640071,2020-05-28 06:27,419.00,-30
1590640131,2020-05-28 06:28,419.00,-28
1590640191,2020-05-28 06:29,418.00,-30
1590640251,2020-05-28 06:30,419.00,-32
1590640311,2020-05-28 06:31,418.00,-32
1590640371,2020-05-28 06:32,415.00,-31
1590640431,2020-05-28 06:33,417.00,-33
1590640491,2020-05-28 06:34,415.00,-30
1590640551,2020-05-28 06:35,416.00,-31
1590640611,2020-05-28 06:36,415.00,-36
1590640671,2020-05-28 06:37,420.00,-30
1590640731,2020-05-28 06:38,417.00,-31
1590640791,2020-05-28 06:39,413.00,-31
1590640851,2020-05-28 06:40,415.00,-30
1590640911,2020-05-28 06:41,415.00,-31
1590640971,2020-05-28 06:42,414.00,-33
1590641032,2020-05-28 06:43,413.00,-30
1590641092,2020-05-28 06:44,412.00,-30
1590641152,2020-05-28 06:45,414.00,-32
1590641212,2020-05-28 06:46,413.00,-29
1590641272,2020-05-28 06:47,413.00,-33
1590641332,2020-05-28 06:48,417.00,-33
1590641392,2020-05-28 06:49,416.00,-31
1590641452,2020-05-28 06:50,416.00,-30
1590641512,2020-05-28 06:51,415.00,-30
1590641572,2020-05-28 06:52,412.00,-31
1590641632,2020-05-28 06:53,416.00,-30
1590641692,2020-05-28 06:54,417.00,-30
1590641753,2020-05-28 06:55,416.00,-33
1590641813,2020-05-28 06:56,416.00,-32
1590641873,2020-05-28 06:57,415.00,-28
1590641933,2020-05-28 06:58,417.00,-30
1590641993,2020-05-28 06:59,418.00,-34
1590642053,2020-05-28 07:00,418.00,-32
1590642113,2020-05-28 07:01,414.00,-31
1590642173,2020-05-28 07:02,412.00,-31
1590642233,2020-05-28 07:03,417.00,-29
1590642294,2020-05-28 07:04,420.00,-32
1590642354,2020-05-28 07:05,423.00,-30
1590642414,2020-05-28 07:06,424.00,-34
1590642474,2020-05-28 07:07,425.00,-32
1590642534,2020-05-28 07:08,424.00,-32
1590642594,2020-05-28 07:09,424.00,-29
1590642654,2020-05-28 07:10,424.00,-34
1590642714,2020-05-28 07:11,425.00,-36
1590642775,2020-05-28 07:12,427.00,-35
1590642835,2020-05-28 07:13,430.00,-35
1590642895,2020-05-28 07:14,430.00,-34
1590642955,2020-05-28 07:15,431.00,-30
1590643015,2020-05-28 07:16,433.00,-38
1590643075,2020-05-28 07:17,428.00,-32
1590643135,2020-05-28 07:18,431.00,-34
1590643195,2020-05-28 07:19,433.00,-33
1590643255,2020-05-28 07:20,432.00,-30
1590643315,2020-05-28 07:21,433.00,-33
1590643375,2020-05-28 07:22,434.00,-31
1590643436,2020-05-28 07:23,434.00,-33
1590643496,2020-05-28 07:24,436.00,-31
1590643556,2020-05-28 07:25,434.00,-33
1590643616,2020-05-28 07:26,435.00,-32
1590643676,2020-05-28 07:27,439.00,-33
1590643736,2020-05-28 07:28,439.00,-33
1590643796,2020-05-28 07:29,437.00,-34
1590643856,2020-05-28 07:30,436.00,-31
1590643916,2020-05-28 07:31,437.00,-34
1590643976,2020-05-28 07:32,436.00,-34
1590644036,2020-05-28 07:33,434.00,-33
1590644097,2020-05-28 07:34,436.00,-33
1590644157,2020-05-28 07:35,437.00,-28
1590644217,2020-05-28 07:36,437.00,-30
1590644277,2020-05-28 07:37,436.00,-29
1590644337,2020-05-28 07:38,435.00,-30
1590644397,2020-05-28 07:39,436.00,-33
1590644457,2020-05-28 07:40,434.00,-31
1590644517,2020-05-28 07:41,430.00,-32
1590644577,2020-05-28 07:42,434.00,-33
1590644637,2020-05-28 07:43,438.00,-34
1590644697,2020-05-28 07:44,437.00,-30
1590644757,2020-05-28 07:45,434.00,-30
1590644817,2020-05-28 07:46,433.00,-33
1590644877,2020-05-28 07:47,432.00,-33
1590644938,2020-05-28 07:48,435.00,-34
1590644998,2020-05-28 07:49,438.00,-29
1590645058,2020-05-28 07:50,440.00,-33
1590645119,2020-05-28 07:51,437.00,-30
1590645179,2020-05-28 07:52,439.00,-29
1590645239,2020-05-28 07:53,437.00,-28
1590645299,2020-05-28 07:54,439.00,-30
1590645359,2020-05-28 07:55,437.00,-32
1590645419,2020-05-28 07:56,437.00,-29
1590645479,2020-05-28 07:57,440.00,-31
1590645539,2020-05-28 07:58,437.00,-32
1590645599,2020-05-28 07:59,438.00,-32
1590645659,2020-05-28 08:00,438.00,-31
1590645719,2020-05-28 08:01,438.00,-30
1590645779,2020-05-28 08:02,436.00,-30
1590645839,2020-05-28 08:03,436.00,-29
1590645899,2020-05-28 08:04,433.00,-28
1590645960,2020-05-28 08:06,433.00,-32
1590646020,2020-05-28 08:07,434.00,-30
1590646080,2020-05-28 08:08,437.00,-32
1590646140,2020-05-28 08:09,437.00,-29
1590646200,2020-05-28 08:10,439.00,-31
1590646260,2020-05-28 08:11,436.00,-34
1590646320,2020-05-28 08:12,439.00,-32
1590646380,2020-05-28 08:13,437.00,-31
1590646440,2020-05-28 08:14,440.00,-31
1590646500,2020-05-28 08:15,440.00,-32
1590646560,2020-05-28 08:16,439.00,-30
1590646620,2020-05-28 08:17,438.00,-28
1590646680,2020-05-28 08:18,437.00,-29
1590646741,2020-05-28 08:19,433.00,-31
1590646801,2020-05-28 08:20,433.00,-30
1590646861,2020-05-28 08:21,432.00,-32
1590646921,2020-05-28 08:22,432.00,-29
1590646981,2020-05-28 08:23,437.00,-29
1590647041,2020-05-28 08:24,438.00,-32
1590647101,2020-05-28 08:25,441.00,-31
1590647161,2020-05-28 08:26,441.00,-33
1590647221,2020-05-28 08:27,443.00,-35
1590647281,2020-05-28 08:28,445.00,-29
1590647341,2020-05-28 08:29,447.00,-30
1590647401,2020-05-28 08:30,443.00,-30
1590647461,2020-05-28 08:31,443.00,-30
1590647522,2020-05-28 08:32,444.00,-32
1590647582,2020-05-28 08:33,442.00,-35
1590647642,2020-05-28 08:34,443.00,-29
1590647702,2020-05-28 08:35,444.00,-31
1590647762,2020-05-28 08:36,445.00,-30
1590647822,2020-05-28 08:37,447.00,-34
1590647882,2020-05-28 08:38,447.00,-30
1590647942,2020-05-28 08:39,448.00,-29
1590648002,2020-05-28 08:40,445.00,-28
1590648062,2020-05-28 08:41,448.00,-34
1590648123,2020-05-28 08:42,448.00,-29
1590648183,2020-05-28 08:43,447.00,-31
1590648243,2020-05-28 08:44,443.00,-30
1590648303,2020-05-28 08:45,441.00,-29
1590648363,2020-05-28 08:46,440.00,-30
1590648423,2020-05-28 08:47,440.00,-32
1590648483,2020-05-28 08:48,440.00,-29
1590648543,2020-05-28 08:49,440.00,-29
1590648603,2020-05-28 08:50,442.00,-31
1590648663,2020-05-28 08:51,444.00,-30
1590648723,2020-05-28 08:52,443.00,-29
1590648784,2020-05-28 08:53,443.00,-29
1590648844,2020-05-28 08:54,441.00,-32
1590648904,2020-05-28 08:55,440.00,-30
1590648964,2020-05-28 08:56,438.00,-31
1590649024,2020-05-28 08:57,439.00,-32
1590649084,2020-05-28 08:58,439.00,-34
1590649144,2020-05-28 08:59,436.00,-29
1590649204,2020-05-28 09:00,438.00,-32
1590649264,2020-05-28 09:01,438.00,-33
1590649324,2020-05-28 09:02,436.00,-28
1590649384,2020-05-28 09:03,440.00,-29
1590649444,2020-05-28 09:04,438.00,-28
1590649504,2020-05-28 09:05,438.00,-29
1590649565,2020-05-28 09:06,437.00,-30
1590649625,2020-05-28 09:07,434.00,-31
1590649685,2020-05-28 09:08,432.00,-31
1590649745,2020-05-28 09:09,432.00,-32
1590649805,2020-05-28 09:10,432.00,-29
1590649865,2020-05-28 09:11,432.00,-30
1590649925,2020-05-28 09:12,427.00,-32
1590649985,2020-05-28 09:13,431.00,-32
1590650045,2020-05-28 09:14,429.00,-31
1590650106,2020-05-28 09:15,431.00,-28
1590650166,2020-05-28 09:16,429.00,-31
1590650226,2020-05-28 09:17,441.00,-30
1590650286,2020-05-28 09:18,439.00,-28
1590650346,2020-05-28 09:19,436.00,-29
1590650406,2020-05-28 09:20,439.00,-31
1590650466,2020-05-28 09:21,437.00,-31
1590650526,2020-05-28 09:22,438.00,-30
1590650586,2020-05-28 09:23,440.00,-31
1590650646,2020-05-28 09:24,438.00,-34
1590650707,2020-05-28 09:25,438.00,-31
1590650767,2020-05-28 09:26,437.00,-30
1590650827,2020-05-28 09:27,438.00,-34
1590650887,2020-05-28 09:28,437.00,-28
1590650947,2020-05-28 09:29,436.00,-33
1590651007,2020-05-28 09:30,437.00,-30
1590651067,2020-05-28 09:31,440.00,-32
1590651127,2020-05-28 09:32,440.00,-31
1590651187,2020-05-28 09:33,438.00,-31
1590651247,2020-05-28 09:34,438.00,-33
1590651307,2020-05-28 09:35,433.00,-32
1590651368,2020-05-28 09:36,435.00,-29
1590651428,2020-05-28 09:37,434.00,-31
1590651488,2020-05-28 09:38,436.00,-33
1590651548,2020-05-28 09:39,435.00,-32
1590651608,2020-05-28 09:40,435.00,-30
1590651668,2020-05-28 09:41,434.00,-32
1590651728,2020-05-28 09:42,436.00,-33
1590651788,2020-05-28 09:43,438.00,-32
1590651849,2020-05-28 09:44,433.00,-29
1590651909,2020-05-28 09:45,440.00,-32
1590651969,2020-05-28 09:46,436.00,-31
1590652029,2020-05-28 09:47,432.00,-33
1590652089,2020-05-28 09:48,434.00,-30
1590652149,2020-05-28 09:49,433.00,-33
1590652209,2020-05-28 09:50,435.00,-33
1590652269,2020-05-28 09:51,436.00,-33
1590652332,2020-05-28 09:52,430.00,-31
1590652392,2020-05-28 09:53,433.00,-34
1590652452,2020-05-28 09:54,432.00,-30
1590652513,2020-05-28 09:55,431.00,-29
1590652573,2020-05-28 09:56,431.00,-33
1590652636,2020-05-28 09:57,429.00,-31
1590652696,2020-05-28 09:58,427.00,-31
1590652756,2020-05-28 09:59,429.00,-33
1590652816,2020-05-28 10:00,430.00,-31
1590652876,2020-05-28 10:01,429.00,-32
1590652936,2020-05-28 10:02,429.00,-33
1590652996,2020-05-28 10:03,431.00,-30
1590653056,2020-05-28 10:04,431.00,-29
1590653116,2020-05-28 10:05,428.00,-29
1590653176,2020-05-28 10:06,428.00,-30
1590653237,2020-05-28 10:07,427.00,-31
1590653297,2020-05-28 10:08,426.00,-31
1590653357,2020-05-28 10:09,430.00,-30
1590653417,2020-05-28 10:10,429.00,-31
1590653477,2020-05-28 10:11,428.00,-31
1590653537,2020-05-28 10:12,428.00,-30
1590653598,2020-05-28 10:13,427.00,-33
1590653658,2020-05-28 10:14,428.00,-34
1590653718,2020-05-28 10:15,428.00,-32